Location: ????????
(37.6846°N, 24.0673°E)
Time: 15:01:38
(UTC+00:00)

Cosmos 1570 Rocket - Pass Details

Date: 14 July 2020
Orbit: 763 x 788 km, 74.1° (Epoch: 03 August)

Event Time Altitude Azimuth Distance (km) Brightness Sun altitude
Rises 02:39:23 0° 335° (NNW) 3,246 7.4 -6.6°
Reaches altitude 10° 02:41:50 10° 329° (NNW) 2,319 6.5 -6.2°
Maximum altitude 02:46:50 46° 258° (WSW) 1,035 4.3 -5.4°
Drops below altitude 10° 02:51:51 10° 186° (S) 2,319 6.1 -4.6°
Sets 02:54:18 0° 180° (S) 3,247 6.9 -4.1°
